Location: The Saddle
(36.8333°N, 80.3417°W)
Time: 17:30:22
(UTC-05:00)

Courier 1B - Visible Passes

Search period start: 30 January 2023 00:00
Search period end: 09 February 2023 00:00
Orbit: 962 x 1209 km, 28.3° (Epoch: 30 January)

Date Brightness Start Highest point End Pass type
(mag) Time Alt. Az. Time Alt. Az. Time Alt. Az.
30 Jan 9.6 19:18:00 10° WSW 19:22:33 20° SSW 19:27:14 10° SSE visible
31 Jan 9.5 18:23:55 10° WSW 18:28:57 24° SSW 18:34:08 10° SSE visible
01 Feb 10.0 19:26:23 10° SW 19:28:33 12° SSW 19:30:46 10° S visible
02 Feb 9.9 18:31:22 10° WSW 18:35:00 15° SSW 18:38:42 10° S visible
